This is the latest recevied weather packets stored in our database for station/object SQ6RR-11. If no packets are shown the sender has not sent any weather packets the latest 10 day(s).
| Time | Temp. | Humidity | Pressure | Rain* | Wind** | Luminosity | Snow |
|---|---|---|---|---|---|---|---|
| 1778089824 | 14.44° C | 90% | 1007.3 hPa | 0 mm | - | - | - |
| 1778089560 | 14.44° C | 89% | 1007.3 hPa | 0 mm | - | - | - |
| 1778089291 | 14.44° C | 88% | 1007.5 hPa | 0 mm | - | - | - |
| 1778089023 | 14.44° C | 87% | 1007.4 hPa | 0 mm | - | - | - |
| 1778088757 | 14.44° C | 87% | 1007.4 hPa | 0 mm | - | - | - |
| 1778088470 | 14.44° C | 87% | 1007.2 hPa | 0 mm | - | - | - |
| 1778088211 | 14.44° C | 85% | 1007.1 hPa | 0 mm | - | - | - |
| 1778087946 | 14.44° C | 81% | 1007 hPa | 0 mm | - | - | - |
| 1778087663 | 15° C | 79% | 1006.9 hPa | 0 mm | - | - | - |
| 1778087418 | 15.56° C | 78% | 1006.7 hPa | 0 mm | - | - | - |
| 1778087158 | 16.11° C | 75% | 1006.4 hPa | 0 mm | - | - | - |
| 1778086907 | 16.67° C | 74% | 1006.3 hPa | 0 mm | - | - | - |
| 1778086627 | 16.67° C | 73% | 1006.2 hPa | 0 mm | - | - | - |
| 1778086375 | 16.67° C | 71% | 1006.2 hPa | 0 mm | - | - | - |
| 1778086107 | 16.67° C | 70% | 1006.3 hPa | 0 mm | - | - | - |
| 1778085852 | 17.22° C | 68% | 1006.3 hPa | 0 mm | - | - | - |
| 1778085578 | 17.22° C | 65% | 1006.4 hPa | 0 mm | - | - | - |
| 1778085294 | 17.78° C | 62% | 1006.5 hPa | 0 mm | - | - | - |
| 1778085021 | 17.78° C | 61% | 1006.5 hPa | 0 mm | - | - | - |
| 1778084751 | 17.78° C | 58% | 1006.6 hPa | 0 mm | - | - | - |
| 1778084478 | 17.78° C | 56% | 1006.6 hPa | 0 mm | - | - | - |
| 1778084193 | 18.33° C | 54% | 1006.8 hPa | 0 mm | - | - | - |
| 1778083916 | 18.33° C | 52% | 1006.9 hPa | 0 mm | - | - | - |
| 1778083642 | 18.89° C | 53% | 1006.9 hPa | 0 mm | - | - | - |
| 1778083374 | 19.44° C | 51% | 1007 hPa | 0 mm | - | - | - |
* Rain latest hour (hover to see other rain measurements)
** Current wind speed in m/s (hover to see current wind gust speed)